Pecos, TX

7:29 PM CST on December 16, 2017 (GMT -0600)
Pecos Municipal

Weather History for KPEQ - October, 2012

Change the Weather History Date:

Wednesday, October 17, 2012

  Actual Average Record
Temperature  
Mean Temperature 70 °F -  
Max Temperature 91 °F 80 °F 97 °F (1979)
Min Temperature 50 °F 47 °F 35 °F (1952)
Cooling Degree Days 6    
Growing Degree Days 20 (Base 50)    
Moisture  
Dew Point 38 °F    
Average Humidity 35    
Maximum Humidity 73    
Minimum Humidity 10    
Precipitation  
Precipitation 0.04 in - - ()
Sea Level Pressure  
Sea Level Pressure 29.78 in    
Wind  
Wind Speed 9 mph (SW)    
Max Wind Speed 26 mph    
Max Gust Speed 33 mph    
Visibility 10 miles    
Events      
Averages and records for this station are not official NWS values.
T = Trace of Precipitation, MM = Missing Value Source: NWS Daily Summary

Daily Weather History Graph

Daily Weather History Graph

Search for Another Location

Airport or City:

Trip Planner

Search our weather history database for the weather conditions in past years. The results will help you decide how hot, cold, wet, or windy it might be!

Date:

Astronomy

Oct. 17, 2012 Rise Set
Actual Time 7:58 AM CDT 7:19 PM CDT
Civil Twilight 7:34 AM CDT 7:43 PM CDT
Nautical Twilight 7:05 AM CDT 8:12 PM CDT
Astronomical Twilight 6:37 AM CDT 8:40 PM CDT
Moon 10:24 AM CDT 9:09 PM CDT
Length of Visible Light 12h 09m
Length of Day
11h 20m
Waxing Crescent, 7% of the Moon is Illuminated
Oct 17
Waxing Crescent
Oct 21
First Quarter
Oct 29
Full
Nov 6
Last Quarter
Nov 13
New

Hourly Weather History & Observations

Time (CDT) Temp. Dew Point Humidity Pressure Visibility Wind Dir Wind Speed Gust Speed Precip Events Conditions
12:15 AM 64.8 °F 49.3 °F 57% 29.77 in 10.0 mi SSW 8.1 mph - N/A   Clear
12:35 AM 63.9 °F 49.1 °F 59% 29.77 in 10.0 mi SSW 8.1 mph - N/A   Clear
12:55 AM 64.8 °F 48.7 °F 56% 29.77 in 10.0 mi SSW 10.4 mph - N/A   Clear
1:15 AM 65.7 °F 48.4 °F 54% 29.76 in 10.0 mi SSW 5.8 mph - N/A   Clear
1:35 AM 64.0 °F 48.4 °F 57% 29.76 in 10.0 mi SSW 9.2 mph - N/A   Clear
1:55 AM 63.5 °F 48.7 °F 59% 29.76 in 10.0 mi SSW 8.1 mph - N/A   Clear
2:15 AM 62.1 °F 49.1 °F 62% 29.75 in 10.0 mi SSW 6.9 mph - N/A   Clear
2:55 AM 66.2 °F 48.2 °F 52% 29.75 in 10.0 mi SW 10.4 mph - N/A   Clear
3:15 AM 64.0 °F 48.2 °F 56% 29.75 in 10.0 mi SW 8.1 mph - N/A   Clear
3:35 AM 61.7 °F 47.8 °F 60% 29.75 in 10.0 mi SW 5.8 mph - N/A   Clear
3:55 AM 58.1 °F 47.3 °F 67% 29.75 in 10.0 mi SSW 4.6 mph - N/A   Clear
4:15 AM 55.9 °F 46.4 °F 70% 29.75 in 10.0 mi Calm Calm - N/A   Clear
5:15 AM 55.6 °F 45.5 °F 69% 29.75 in 10.0 mi SSW 9.2 mph - N/A   Clear
5:35 AM 58.3 °F 45.1 °F 62% 29.74 in 10.0 mi SSW 8.1 mph - N/A   Clear
5:55 AM 56.7 °F 44.4 °F 64% 29.75 in 10.0 mi South 3.5 mph - N/A   Clear
6:15 AM 52.2 °F 43.7 °F 73% 29.75 in 10.0 mi Calm Calm - N/A   Clear
6:35 AM 52.5 °F 43.0 °F 70% 29.76 in 10.0 mi South 4.6 mph - N/A   Clear
6:55 AM 52.5 °F 42.8 °F 70% 29.77 in 10.0 mi SSE 3.5 mph - N/A   Clear
7:15 AM 52.7 °F 42.8 °F 69% 29.77 in 10.0 mi South 3.5 mph - N/A   Clear
7:55 AM 50.7 °F 42.3 °F 73% 29.78 in 10.0 mi Calm Calm - N/A   Clear
8:15 AM 52.7 °F 42.4 °F 68% 29.78 in 10.0 mi SW 5.8 mph - N/A   Clear
8:35 AM 54.7 °F 42.6 °F 64% 29.79 in 10.0 mi SSW 4.6 mph - N/A   Clear
8:55 AM 63.9 °F 43.5 °F 48% 29.79 in 10.0 mi SW 11.5 mph 16.1 mph N/A   Clear
9:15 AM 71.6 °F 41.0 °F 33% 29.80 in 10.0 mi WSW 11.5 mph 17.3 mph N/A   Clear
9:35 AM 73.8 °F 39.6 °F 29% 29.80 in 10.0 mi WSW 15.0 mph - N/A   Clear
9:55 AM 75.6 °F 38.1 °F 26% 29.81 in 10.0 mi WSW 17.3 mph 27.6 mph N/A   Clear
10:15 AM 77.9 °F 35.8 °F 22% 29.82 in 10.0 mi WSW 20.7 mph 28.8 mph N/A   Clear
10:35 AM 79.7 °F 33.8 °F 19% 29.82 in 10.0 mi West 24.2 mph 32.2 mph N/A   Clear
10:55 AM 80.6 °F 32.0 °F 17% 29.83 in 10.0 mi West 25.3 mph 32.2 mph N/A   Clear
11:15 AM 81.5 °F 32.0 °F 17% 29.83 in 10.0 mi West 26.5 mph 33.4 mph N/A   Clear
11:35 AM 81.7 °F 31.3 °F 16% 29.82 in 10.0 mi West 24.2 mph 29.9 mph N/A   Clear
11:55 AM 82.6 °F 31.6 °F 16% 29.83 in 10.0 mi West 20.7 mph 27.6 mph N/A   Clear
12:15 PM 84.4 °F 30.2 °F 14% 29.82 in 10.0 mi West 18.4 mph 26.5 mph N/A   Clear
12:35 PM 86.2 °F 30.2 °F 13% 29.81 in 10.0 mi West 25.3 mph 31.1 mph N/A   Clear
12:55 PM 87.3 °F 30.2 °F 13% 29.81 in 10.0 mi West 25.3 mph 28.8 mph N/A   Clear
1:15 PM 88.2 °F 30.6 °F 13% 29.80 in 10.0 mi West 25.3 mph 28.8 mph N/A   Clear
1:35 PM 89.1 °F 30.4 °F 12% 29.79 in 10.0 mi West 17.3 mph 23.0 mph N/A   Clear
2:15 PM 89.4 °F 29.7 °F 12% 29.78 in 10.0 mi West 16.1 mph 21.9 mph N/A   Clear
2:35 PM 90.5 °F 28.4 °F 11% 29.77 in 10.0 mi NW 11.5 mph 17.3 mph N/A   Clear
2:55 PM 91.0 °F 28.4 °F 11% 29.76 in 10.0 mi WNW 9.2 mph 17.3 mph N/A   Clear
3:15 PM 91.0 °F 28.2 °F 11% 29.76 in 10.0 mi WNW 6.9 mph 18.4 mph N/A   Clear
3:35 PM 90.9 °F 27.3 °F 10% 29.75 in 10.0 mi NW 6.9 mph - N/A   Clear
3:55 PM 91.6 °F 28.0 °F 10% 29.75 in 10.0 mi NW 5.8 mph - N/A   Clear
4:15 PM 89.8 °F 27.0 °F 10% 29.76 in 10.0 mi NW 3.5 mph - N/A   Clear
4:35 PM 90.3 °F 28.4 °F 11% 29.76 in 10.0 mi Calm Calm - N/A   Clear
4:55 PM 88.2 °F 29.7 °F 12% 29.76 in 10.0 mi NNW 5.8 mph - N/A   Clear
5:15 PM 88.2 °F 29.5 °F 12% 29.75 in 10.0 mi Calm Calm - N/A   Clear
5:35 PM - - N/A% - - North - - N/A   Unknown
6:15 PM 88.3 °F 38.3 °F 17% 29.75 in 10.0 mi East 3.5 mph - N/A   Clear
6:35 PM 86.5 °F 41.4 °F 20% 29.76 in 10.0 mi Calm Calm - N/A   Clear
6:55 PM 83.3 °F 45.7 °F 27% 29.76 in 10.0 mi SE 3.5 mph - N/A   Clear
7:15 PM 80.8 °F 43.7 °F 27% 29.77 in 10.0 mi SE 4.6 mph - N/A   Clear
7:35 PM 77.7 °F 40.6 °F 26% 29.77 in 10.0 mi ESE 6.9 mph - N/A   Clear
7:55 PM 77.2 °F 38.8 °F 25% 29.77 in 10.0 mi SSE 4.6 mph - N/A   Clear
8:15 PM 74.5 °F 37.8 °F 26% 29.79 in 10.0 mi South 8.1 mph - N/A   Clear
8:35 PM 76.5 °F 35.1 °F 22% 29.79 in 10.0 mi SSW 6.9 mph - N/A   Clear
8:55 PM 75.2 °F 34.5 °F 23% 29.80 in 10.0 mi SSW 6.9 mph - N/A   Clear
9:15 PM 70.2 °F 35.8 °F 28% 29.80 in 10.0 mi SSW 6.9 mph - N/A   Clear
9:35 PM 67.1 °F 36.5 °F 32% 29.81 in 10.0 mi SW 9.2 mph - N/A   Clear
9:55 PM 67.3 °F 34.9 °F 30% 29.82 in 10.0 mi WSW 8.1 mph - N/A   Clear
10:15 PM 66.6 °F 34.5 °F 31% 29.83 in 10.0 mi West 10.4 mph - N/A   Clear
10:35 PM 66.4 °F 34.2 °F 30% 29.84 in 10.0 mi WSW 9.2 mph - N/A   Clear
10:55 PM 65.7 °F 34.3 °F 31% 29.84 in 10.0 mi WSW 11.5 mph - N/A   Clear
11:15 PM 64.6 °F 34.7 °F 33% 29.84 in 10.0 mi West 9.2 mph - N/A   Clear
11:35 PM 63.7 °F 34.7 °F 34% 29.85 in 10.0 mi West 10.4 mph - N/A   Clear
11:55 PM 63.7 °F 34.3 °F 34% 29.85 in 10.0 mi WSW 9.2 mph - N/A   Clear